When you browse on this site, cookies collect data to enhance your experience and personalize the content and advertising you see.
Visit our Privacy Policy to learn more. By continuing to use the site, you agree to this use of cookies and data.

Hourly Weather Bellinzona

Today, 9 July, Thursday

Time Temperature Precipitation Wind Pressure Humidity
00:00 +20°C° 0 mm 2 mps 740 mmHg 81%
01:00 +19°C° 0 mm 2 mps 740 mmHg 80%
02:00 +19°C° 0 mm 2 mps 739 mmHg 77%
03:00 +20°C° 0 mm 1 mps 739 mmHg 75%
04:00 +20°C° 0 mm 1 mps 739 mmHg 72%
05:00 +22°C° 0 mm 1 mps 739 mmHg 70%
06:00 +23°C° 0 mm 1 mps 739 mmHg 67%
07:00 +24°C° 0 mm 1 mps 739 mmHg 64%
08:00 +26°C° 0 mm 1 mps 739 mmHg 58%
09:00 +28°C° 0 mm 1 mps 739 mmHg 52%
10:00 +29°C° 0 mm 1 mps 739 mmHg 46%
11:00 +30°C° 0 mm 2 mps 739 mmHg 44%
12:00 +31°C° 0 mm 2 mps 739 mmHg 43%
13:00 +32°C° 0 mm 2 mps 739 mmHg 41%
14:00 +32°C° 0 mm 2 mps 738 mmHg 43%
15:00 +32°C° 0 mm 2 mps 738 mmHg 45%
16:00 +32°C° 0 mm 2 mps 738 mmHg 47%
17:00 +30°C° 0 mm 2 mps 738 mmHg 56%
18:00 +29°C° 0 mm 1 mps 738 mmHg 66%
19:00 +27°C° 0 mm 1 mps 737 mmHg 75%
20:00 +26°C° 0 mm 1 mps 738 mmHg 78%
21:00 +24°C° 0 mm 1 mps 738 mmHg 81%
22:00 +23°C° 0 mm 1 mps 739 mmHg 85%
23:00 +22°C° 0 mm 1 mps 739 mmHg 85%

Tomorrow, 10 July, Friday

Time Temperature Precipitation Wind Pressure Humidity
00:00 +22°C° 0 mm 1 mps 738 mmHg 86%
01:00 +22°C° 0 mm 1 mps 738 mmHg 87%
02:00 +21°C° 0 mm 1 mps 738 mmHg 87%
03:00 +21°C° 0 mm 1 mps 738 mmHg 88%
04:00 +21°C° 0 mm 1 mps 737 mmHg 88%
05:00 +22°C° 0 mm 1 mps 737 mmHg 84%
06:00 +24°C° 0 mm 1 mps 737 mmHg 80%
07:00 +23°C° 0 mm 0 mps 737 mmHg 75%
08:00 +27°C° 0 mm 1 mps 737 mmHg 70%
09:00 +28°C° 0 mm 1 mps 737 mmHg 64%
10:00 +30°C° 0 mm 2 mps 737 mmHg 59%
11:00 +31°C° 0.1 mm 2 mps 737 mmHg 57%
12:00 +31°C° 0.1 mm 2 mps 737 mmHg 55%
13:00 +33°C° 0.1 mm 3 mps 736 mmHg 53%
14:00 +31°C° 0.6 mm 2 mps 736 mmHg 60%
15:00 +30°C° 0.6 mm 2 mps 736 mmHg 67%
16:00 +29°C° 0.6 mm 2 mps 736 mmHg 74%
17:00 +28°C° 1.2 mm 2 mps 736 mmHg 80%
18:00 +26°C° 1.2 mm 1 mps 736 mmHg 86%
19:00 +25°C° 1.2 mm 1 mps 736 mmHg 91%
20:00 +24°C° 1 mm 1 mps 736 mmHg 91%
21:00 +24°C° 1 mm 1 mps 737 mmHg 92%
22:00 +23°C° 1 mm 1 mps 737 mmHg 92%
23:00 +23°C° 0.6 mm 1 mps 737 mmHg 92%

Day after tomorrow, 11 July, Saturday

Time Temperature Precipitation Wind Pressure Humidity
00:00 +22°C° 0.6 mm 1 mps 737 mmHg 92%
01:00 +22°C° 0.6 mm 1 mps 737 mmHg 92%
02:00 +22°C° 0.3 mm 1 mps 737 mmHg 92%
03:00 +21°C° 0.3 mm 1 mps 737 mmHg 92%
04:00 +20°C° 0.3 mm 2 mps 737 mmHg 92%
05:00 +21°C° 0.2 mm 2 mps 737 mmHg 91%
06:00 +22°C° 0.2 mm 1 mps 737 mmHg 90%
07:00 +23°C° 0.2 mm 1 mps 737 mmHg 89%
08:00 +23°C° 0.6 mm 2 mps 737 mmHg 86%
09:00 +24°C° 0.6 mm 2 mps 737 mmHg 84%
10:00 +24°C° 0.6 mm 3 mps 738 mmHg 81%
11:00 +22°C° 0.9 mm 3 mps 738 mmHg 80%
12:00 +22°C° 0.9 mm 3 mps 738 mmHg 79%
13:00 +21°C° 0.9 mm 4 mps 738 mmHg 77%
14:00 +22°C° 0.5 mm 4 mps 738 mmHg 73%
15:00 +22°C° 0.5 mm 4 mps 738 mmHg 69%
16:00 +23°C° 0.5 mm 4 mps 738 mmHg 65%
17:00 +24°C° 0 mm 3 mps 738 mmHg 65%
18:00 +24°C° 0 mm 3 mps 739 mmHg 64%
19:00 +24°C° 0 mm 3 mps 739 mmHg 64%
20:00 +21°C° 0 mm 3 mps 739 mmHg 67%
21:00 +19°C° 0 mm 3 mps 740 mmHg 70%
22:00 +18°C° 0 mm 3 mps 741 mmHg 73%
23:00 +17°C° 0 mm 3 mps 741 mmHg 75%

12 July, Sunday

Time Temperature Precipitation Wind Pressure Humidity
00:00 +17°C° 0 mm 3 mps 741 mmHg 76%
01:00 +16°C° 0 mm 2 mps 741 mmHg 78%
02:00 +15°C° 0 mm 2 mps 741 mmHg 79%
03:00 +15°C° 0 mm 2 mps 741 mmHg 80%
04:00 +15°C° 0 mm 2 mps 741 mmHg 81%
05:00 +16°C° 0 mm 2 mps 741 mmHg 76%
06:00 +18°C° 0 mm 1 mps 741 mmHg 71%
07:00 +20°C° 0 mm 1 mps 741 mmHg 66%
08:00 +22°C° 0 mm 1 mps 741 mmHg 60%
09:00 +24°C° 0 mm 1 mps 741 mmHg 53%
10:00 +26°C° 0 mm 1 mps 741 mmHg 46%
11:00 +27°C° 0 mm 2 mps 741 mmHg 44%
12:00 +27°C° 0 mm 2 mps 741 mmHg 42%
13:00 +28°C° 0 mm 2 mps 741 mmHg 41%
14:00 +28°C° 0 mm 2 mps 741 mmHg 43%
15:00 +28°C° 0 mm 2 mps 741 mmHg 45%
16:00 +28°C° 0 mm 2 mps 741 mmHg 47%
17:00 +27°C° 0 mm 2 mps 741 mmHg 56%
18:00 +26°C° 0 mm 1 mps 741 mmHg 65%
19:00 +25°C° 0 mm 1 mps 741 mmHg 74%
20:00 +23°C° 0 mm 1 mps 741 mmHg 80%
21:00 +21°C° 0 mm 1 mps 742 mmHg 85%
22:00 +19°C° 0 mm 1 mps 742 mmHg 91%
23:00 +17°C° 0 mm 0 mps 742 mmHg 90%

13 July, Monday

Time Temperature Precipitation Wind Pressure Humidity
00:00 +18°C° 0 mm 0 mps 742 mmHg 88%
01:00 +18°C° 0 mm 0 mps 742 mmHg 87%
02:00 +18°C° 0.1 mm 0 mps 741 mmHg 88%
03:00 +18°C° 0.1 mm 0 mps 741 mmHg 90%
04:00 +18°C° 0.1 mm 0 mps 741 mmHg 92%
05:00 +18°C° 0.1 mm 0 mps 741 mmHg 92%
06:00 +19°C° 0.1 mm 0 mps 741 mmHg 92%
07:00 +21°C° 0.1 mm 1 mps 741 mmHg 93%
08:00 +21°C° 0.1 mm 1 mps 741 mmHg 89%
09:00 +22°C° 0.1 mm 1 mps 741 mmHg 86%
10:00 +23°C° 0.1 mm 1 mps 741 mmHg 82%
11:00 +23°C° 0.1 mm 1 mps 740 mmHg 79%
12:00 +24°C° 0.1 mm 1 mps 740 mmHg 75%
13:00 +25°C° 0.1 mm 2 mps 740 mmHg 72%
14:00 +25°C° 0.1 mm 1 mps 739 mmHg 71%
15:00 +25°C° 0.1 mm 1 mps 739 mmHg 70%
16:00 +25°C° 0.1 mm 1 mps 739 mmHg 69%
17:00 +25°C° 0.1 mm 1 mps 739 mmHg 73%
18:00 +24°C° 0.1 mm 1 mps 739 mmHg 76%
19:00 +24°C° 0.1 mm 1 mps 739 mmHg 80%
20:00 +23°C° 0 mm 1 mps 739 mmHg 83%
21:00 +19°C° 0 mm 0 mps 739 mmHg 87%
22:00 +18°C° 0 mm 0 mps 739 mmHg 91%
23:00 +18°C° 0 mm 0 mps 739 mmHg 90%

14 July, Tuesday

Time Temperature Precipitation Wind Pressure Humidity
00:00 +18°C° 0 mm 0 mps 739 mmHg 89%
01:00 +19°C° 0 mm 0 mps 739 mmHg 88%
02:00 +19°C° 0 mm 0 mps 738 mmHg 89%
03:00 +19°C° 0 mm 0 mps 738 mmHg 90%
04:00 +19°C° 0 mm 0 mps 738 mmHg 91%
05:00 +19°C° 0.1 mm 0 mps 738 mmHg 91%
06:00 +19°C° 0.1 mm 0 mps 738 mmHg 91%
07:00 +19°C° 0.1 mm 0 mps 738 mmHg 91%
08:00 +20°C° 0.1 mm 0 mps 738 mmHg 88%
09:00 +23°C° 0.1 mm 1 mps 738 mmHg 84%
10:00 +24°C° 0.1 mm 1 mps 737 mmHg 81%
11:00 +25°C° 0.2 mm 1 mps 737 mmHg 77%
12:00 +26°C° 0.2 mm 1 mps 737 mmHg 72%
13:00 +27°C° 0.2 mm 2 mps 737 mmHg 68%
14:00 +27°C° 0.2 mm 2 mps 737 mmHg 67%
15:00 +27°C° 0.2 mm 2 mps 736 mmHg 66%
16:00 +27°C° 0.2 mm 2 mps 736 mmHg 65%
17:00 +26°C° 0.2 mm 2 mps 736 mmHg 71%
18:00 +25°C° 0.2 mm 1 mps 736 mmHg 76%
19:00 +25°C° 0.2 mm 1 mps 736 mmHg 81%
20:00 +23°C° 0.1 mm 1 mps 737 mmHg 85%
21:00 +22°C° 0.1 mm 1 mps 737 mmHg 88%
22:00 +19°C° 0.1 mm 0 mps 737 mmHg 91%
23:00 +20°C° 0 mm 1 mps 737 mmHg 91%
Show more